TimeEDT,TemperatureF,Dew PointF,Humidity,Sea Level PressureIn,VisibilityMPH,Wind Direction,Wind SpeedMPH,Gust SpeedMPH,PrecipitationIn,Events,Conditions,WindDirDegrees,DateUTC
12:15 AM,48.2,37.4,66,29.53,10.0,WSW,10.4,-,N/A,,Overcast,250,2012-10-22 04:15:00
12:35 AM,48.2,37.4,66,29.53,10.0,WSW,9.2,-,N/A,,Overcast,240,2012-10-22 04:35:00
12:55 AM,48.2,37.4,66,29.53,10.0,West,9.2,-,N/A,,Overcast,260,2012-10-22 04:55:00
1:15 AM,48.2,37.4,66,29.52,10.0,West,11.5,-,N/A,,Overcast,260,2012-10-22 05:15:00
1:35 AM,48.2,37.4,66,29.52,10.0,WSW,9.2,-,N/A,,Overcast,250,2012-10-22 05:35:00
1:55 AM,48.2,37.4,66,29.52,10.0,WSW,11.5,-,N/A,,Overcast,250,2012-10-22 05:55:00
2:15 AM,48.2,37.4,66,29.52,10.0,WSW,10.4,18.4,N/A,,Overcast,240,2012-10-22 06:15:00
2:35 AM,48.2,37.4,66,29.52,10.0,WSW,12.7,-,N/A,,Overcast,240,2012-10-22 06:35:00
2:55 AM,48.2,37.4,66,29.52,10.0,WSW,11.5,-,N/A,,Mostly Cloudy,250,2012-10-22 06:55:00
3:15 AM,48.2,37.4,66,29.51,10.0,WSW,12.7,-,N/A,,Mostly Cloudy,240,2012-10-22 07:15:00
3:35 AM,46.4,35.6,66,29.51,10.0,WSW,10.4,16.1,N/A,,Mostly Cloudy,250,2012-10-22 07:35:00
3:55 AM,48.2,35.6,62,29.51,10.0,WSW,9.2,-,N/A,,Mostly Cloudy,250,2012-10-22 07:55:00
4:35 AM,48.2,35.6,62,29.52,10.0,WSW,10.4,16.1,N/A,,Overcast,250,2012-10-22 08:35:00
4:55 AM,48.2,37.4,66,29.52,10.0,West,11.5,-,N/A,,Overcast,260,2012-10-22 08:55:00
5:15 AM,48.2,35.6,62,29.52,10.0,West,11.5,-,N/A,,Mostly Cloudy,260,2012-10-22 09:15:00
5:35 AM,48.2,35.6,62,29.52,10.0,WSW,10.4,16.1,N/A,,Mostly Cloudy,250,2012-10-22 09:35:00
5:55 AM,48.2,35.6,62,29.52,10.0,West,11.5,18.4,N/A,,Mostly Cloudy,260,2012-10-22 09:55:00
6:15 AM,46.4,35.6,66,29.53,10.0,West,9.2,-,N/A,,Mostly Cloudy,260,2012-10-22 10:15:00
6:35 AM,46.4,37.4,71,29.53,10.0,West,11.5,18.4,N/A,,Overcast,260,2012-10-22 10:35:00
6:55 AM,46.4,37.4,71,29.54,10.0,West,12.7,18.4,N/A,,Overcast,260,2012-10-22 10:55:00
7:15 AM,46.4,35.6,66,29.54,10.0,West,12.7,18.4,N/A,,Overcast,260,2012-10-22 11:15:00
7:35 AM,46.4,35.6,66,29.55,10.0,West,8.1,-,N/A,,Overcast,260,2012-10-22 11:35:00
8:15 AM,48.2,37.4,66,29.56,10.0,West,11.5,-,N/A,,Overcast,260,2012-10-22 12:15:00
8:35 AM,48.2,37.4,66,29.56,10.0,West,11.5,-,N/A,,Overcast,270,2012-10-22 12:35:00
8:55 AM,48.2,37.4,66,29.56,10.0,West,13.8,21.9,N/A,,Overcast,270,2012-10-22 12:55:00
9:15 AM,50.0,37.4,62,29.57,10.0,West,15.0,25.3,N/A,,Overcast,270,2012-10-22 13:15:00
9:35 AM,51.8,37.4,58,29.57,10.0,West,17.3,24.2,N/A,,Mostly Cloudy,280,2012-10-22 13:35:00
9:55 AM,51.8,35.6,54,29.57,10.0,West,20.7,27.6,N/A,,Mostly Cloudy,280,2012-10-22 13:55:00
10:15 AM,51.8,35.6,54,29.57,10.0,West,20.7,27.6,N/A,,Overcast,280,2012-10-22 14:15:00
10:35 AM,51.8,35.6,54,29.58,10.0,West,20.7,27.6,N/A,,Overcast,280,2012-10-22 14:35:00
10:55 AM,51.8,35.6,54,29.58,10.0,West,10.4,-,N/A,,Overcast,280,2012-10-22 14:55:00
11:15 AM,53.6,33.8,47,29.58,10.0,WNW,18.4,24.2,N/A,,Overcast,290,2012-10-22 15:15:00
11:35 AM,51.8,33.8,50,29.58,10.0,WNW,13.8,31.1,N/A,,Overcast,300,2012-10-22 15:35:00
11:55 AM,51.8,33.8,50,29.58,10.0,WNW,12.7,25.3,N/A,,Overcast,300,2012-10-22 15:55:00
12:15 PM,51.8,33.8,50,29.58,10.0,West,13.8,21.9,N/A,,Overcast,280,2012-10-22 16:15:00
12:35 PM,53.6,33.8,47,29.58,10.0,WNW,18.4,25.3,N/A,,Overcast,290,2012-10-22 16:35:00
12:55 PM,53.6,33.8,47,29.59,10.0,WNW,15.0,23.0,N/A,,Overcast,300,2012-10-22 16:55:00
1:15 PM,53.6,32.0,44,29.59,10.0,WNW,16.1,23.0,N/A,,Overcast,290,2012-10-22 17:15:00
1:35 PM,55.4,32.0,41,29.58,10.0,NW,18.4,26.5,N/A,,Overcast,310,2012-10-22 17:35:00
1:55 PM,53.6,33.8,47,29.59,10.0,WNW,16.1,29.9,N/A,,Mostly Cloudy,300,2012-10-22 17:55:00
2:15 PM,53.6,30.2,41,29.59,10.0,WNW,19.6,27.6,N/A,,Scattered Clouds,290,2012-10-22 18:15:00
2:35 PM,53.6,30.2,41,29.60,10.0,WNW,15.0,24.2,N/A,,Mostly Cloudy,300,2012-10-22 18:35:00
2:55 PM,53.6,26.6,35,29.60,10.0,NW,13.8,25.3,N/A,,Scattered Clouds,310,2012-10-22 18:55:00
3:15 PM,53.6,30.2,41,29.60,10.0,WNW,15.0,28.8,N/A,,Scattered Clouds,300,2012-10-22 19:15:00
3:35 PM,53.6,30.2,41,29.61,10.0,WNW,16.1,26.5,N/A,,Clear,300,2012-10-22 19:35:00
3:55 PM,53.6,30.2,41,29.61,10.0,WNW,12.7,20.7,N/A,,Scattered Clouds,290,2012-10-22 19:55:00
4:15 PM,51.8,30.2,44,29.62,10.0,WNW,16.1,21.9,N/A,,Mostly Cloudy,290,2012-10-22 20:15:00
4:35 PM,51.8,30.2,44,29.62,10.0,WNW,11.5,19.6,N/A,,Mostly Cloudy,290,2012-10-22 20:35:00
4:55 PM,51.8,28.4,41,29.63,10.0,NW,17.3,24.2,N/A,,Scattered Clouds,310,2012-10-22 20:55:00
5:15 PM,50.0,28.4,43,29.64,10.0,WNW,12.7,-,N/A,,Partly Cloudy,300,2012-10-22 21:15:00
5:35 PM,50.0,28.4,43,29.65,10.0,WNW,16.1,25.3,N/A,,Scattered Clouds,300,2012-10-22 21:35:00
5:55 PM,48.2,26.6,43,29.66,10.0,WNW,10.4,18.4,N/A,,Clear,300,2012-10-22 21:55:00
6:15 PM,48.2,28.4,46,29.67,10.0,NW,6.9,-,N/A,,Mostly Cloudy,320,2012-10-22 22:15:00
6:35 PM,46.4,28.4,50,29.68,10.0,NNW,8.1,-,N/A,,Mostly Cloudy,330,2012-10-22 22:35:00
6:55 PM,46.4,28.4,50,29.69,10.0,WNW,8.1,-,N/A,,Mostly Cloudy,300,2012-10-22 22:55:00
7:15 PM,46.4,26.6,46,29.69,10.0,NNW,9.2,-,N/A,,Scattered Clouds,330,2012-10-22 23:15:00
7:35 PM,44.6,26.6,49,29.69,10.0,NW,6.9,-,N/A,,Clear,310,2012-10-22 23:35:00
7:55 PM,44.6,26.6,49,29.70,10.0,NW,8.1,-,N/A,,Clear,310,2012-10-22 23:55:00
8:15 PM,44.6,26.6,49,29.70,10.0,NW,9.2,-,N/A,,Clear,310,2012-10-23 00:15:00
8:35 PM,44.6,26.6,49,29.71,10.0,NW,11.5,-,N/A,,Clear,310,2012-10-23 00:35:00
8:55 PM,44.6,26.6,49,29.71,10.0,NW,11.5,17.3,N/A,,Clear,310,2012-10-23 00:55:00
9:15 PM,44.6,24.8,46,29.72,10.0,NW,15.0,20.7,N/A,,Clear,310,2012-10-23 01:15:00
9:35 PM,44.6,24.8,46,29.72,10.0,NW,13.8,21.9,N/A,,Clear,310,2012-10-23 01:35:00
9:55 PM,42.8,24.8,49,29.73,10.0,NW,13.8,21.9,N/A,,Clear,320,2012-10-23 01:55:00
10:15 PM,42.8,24.8,49,29.73,10.0,NW,15.0,26.5,N/A,,Clear,310,2012-10-23 02:15:00
10:35 PM,42.8,24.8,49,29.73,10.0,WNW,16.1,26.5,N/A,,Clear,300,2012-10-23 02:35:00
10:55 PM,42.8,24.8,49,29.74,10.0,WNW,13.8,20.7,N/A,,Clear,300,2012-10-23 02:55:00
11:15 PM,42.8,24.8,49,29.75,10.0,WNW,12.7,18.4,N/A,,Clear,290,2012-10-23 03:15:00
11:35 PM,42.8,24.8,49,29.76,10.0,WNW,11.5,23.0,N/A,,Clear,290,2012-10-23 03:35:00
11:55 PM,41.0,24.8,53,29.76,10.0,WNW,11.5,16.1,N/A,,Clear,300,2012-10-23 03:55:00